Regional Weather Roundup
Issued by NWS Northern Indiana

Home | Current Version | Previous Version | Graphics & Text | Print | Product List | Glossary On
Versions: 1 2 3 4 5 6 7 8 9 10 11 12 13 14 15 16 17 18 19 20 21 22 23 24 25 26 27 28 29 30 31 32 33 34 35 36 37 38 39 40 41 42 43 44 45 46 47 48 49 50
259
ASUS43 KIWX 100600
RWRIWX

KIWX WEATHER ROUNDUP
NATIONAL WEATHER SERVICE NORTHERN INDIANA
100 AM EST WED FEB 10 2016

NOTE: "FAIR" INDICATES FEW OR NO CLOUDS BELOW 12,000 FEET WITH NO
SIGNIFICANT WEATHER AND/OR OBSTRUCTIONS TO VISIBILITY.

* THESE STATIONS ARE NOT UNDER NWS QUALITY CONTROL. THEY ALSO MAY NOT
  REPORT WEATHER SUCH AS PRECIPITATION OR FOG.

INZ001>027-100700-
NORTHERN INDIANA

CITY           SKY/WX    TMP DP  RH WIND       PRES   REMARKS
SOUTH BEND     LGT SNOW  19  16  88 W15       29.84F FOG     WCI   5
6HR MIN TEMP:  18; 6HR MAX TEMP:  19; 6HR PCP:  0.01;

GOSHEN         LGT SNOW  18  13  80 W15       29.83S WCI   4
6HR MIN TEMP:  18; 6HR MAX TEMP:  21; 6HR PCP: TRACE;

ANGOLA*        CLOUDY    18  16  93 W9        29.77F WCI   6
FORT WAYNE     FLURRIES  19  12  74 W18       29.85S WCI   4
6HR MIN TEMP:  19; 6HR MAX TEMP:  22; 6HR PCP: TRACE;

PERU/GRISSOM   MIX PCPN  16  11  82 W15       29.88S WCI   1
6HR MIN TEMP:  16; 6HR MAX TEMP:  18; 6HR PCP: TRACE;


$$
INZ028>050-100700-
CENTRAL INDIANA

CITY           SKY/WX    TMP DP  RH WIND       PRES   REMARKS
LAFAYETTE      LGT SNOW  14  10  84 W13       29.96R FOG     WCI   0
6HR MIN TEMP:  14; 6HR MAX TEMP:  16; 6HR PCP: TRACE;

KOKOMO*        CLOUDY    16   9  73 W14       29.90S WCI   1
6HR MIN TEMP:  16; 6HR MAX TEMP:  18;

MUNCIE*        CLOUDY    16  10  77 W12       29.89S WCI   3
6HR MIN TEMP:  16; 6HR MAX TEMP:  20; 6HR PCP: TRACE;

INDIANAPOLIS   LGT SNOW  15  11  83 W10       29.93S WCI   2
6HR MIN TEMP:  15; 6HR MAX TEMP:  17; 6HR PCP:  0.02;


$$
MIZ043>046-050>051-056>058-064>065-071>073-077>080-100700-
SOUTHWEST LOWER MICHIGAN

CITY           SKY/WX    TMP DP  RH WIND       PRES   REMARKS
BATTLE CREEK   CLOUDY    21  13  71 NW10      29.77S WCI  10
6HR MIN TEMP:  21; 6HR MAX TEMP:  24; 6HR PCP: TRACE;

BENTON HARBOR  FLURRIES  23  14  68 NW10      29.84S WCI  12
6HR MIN TEMP:  22; 6HR MAX TEMP:  24; 6HR PCP:  0.03;

COLDWATER*     LGT SNOW  22  19  91 W9        29.77S WCI  11
6HR MIN TEMP:  22; 6HR MAX TEMP:  24;

HILLSDALE*     FLURRIES  21  16  80 W9G16     29.73F WCI  11
6HR MIN TEMP:  21; 6HR MAX TEMP:  24;

HOLLAND        LGT SNOW  20  14  77 N8G17     29.82S WCI  10
6HR MIN TEMP:  20; 6HR MAX TEMP:  24; 6HR PCP:  0.04;

GRAND RAPIDS   CLOUDY    21  13  71 NW17G23   29.79S WCI   7
6HR MIN TEMP:  21; 6HR MAX TEMP:  24; 6HR PCP: TRACE;

KALAMAZOO      CLOUDY    21  15  78 NW7       29.78F WCI  12
6HR MIN TEMP:  21; 6HR MAX TEMP:  24; 6HR PCP:  0.02;

STURGIS*       FLURRIES  20  18  90 W8        29.78F WCI  10
6HR MIN TEMP:  20; 6HR MAX TEMP:  22;

THREE RIVERS*  LGT SNOW  22  19  88 NW9       29.80S WCI  12

$$
OHZ001>008-015>018-024>025-100700-
NORTHWEST OHIO

CITY           SKY/WX    TMP DP  RH WIND       PRES   REMARKS
DEFIANCE       FLURRIES  22  15  75 W12G17    29.81S WCI  10
6HR MIN TEMP:  22; 6HR MAX TEMP:  27; 6HR PCP: TRACE;

FINDLAY        CLOUDY    21  15  78 W22G29    29.79S WCI   5
6HR MIN TEMP:  21; 6HR MAX TEMP:  28;

TOLEDO EXPRESS CLOUDY    23  17  78 W16       29.76S WCI  10
6HR MIN TEMP:  23; 6HR MAX TEMP:  27; 6HR PCP: TRACE;

TOLEDO METCALF CLOUDY    24  18  77 W17       29.77S WCI  11
6HR MIN TEMP:  24; 6HR MAX TEMP:  28; 6HR PCP: TRACE;

LIMA           CLOUDY    18  13  80 W21       29.82R WCI   1
6HR MIN TEMP:  18; 6HR MAX TEMP:  24; 6HR PCP: TRACE;


$$
AND FOR LAKE MICHIGAN COASTAL AND OPEN LAKE BUOY OBSERVATIONS

STATION/POSITION TEMP    WIND        PRES    VSBY  WAVE
                 AIR SEA DIR/SP/G                  HT/PER
                 (F)     (DEG/KT/KT) (MB)    (MI)  (FT/S)
CALUMET HARBOR    15     290/ 11/ 16 1013.4R
MICHIGAN CITY     20     280/ 24/ 27   N/A
BURNS HARBOR      19     300/ 21     1013.5R
SAINT JOSEPH      24     310/ 20/ 28 1011.5F

$$
&&




USA.gov is the U.S. government's official web portal to all federal, state and local government web resources and services.